Total_Precipitation_Accumulation
2.74 3.15 2.95 2.58 2.56 2.64 2.86 3.18 3.44 3.02 2.65 2.55 2.57 2.63 2.74 2.78 2.95 2.69 2.43 2.35 2.08 1.85 1.77 1.74 1.73 1.67 1.65 1.66 1.73 1.90 2.08 2.23 2.45 2.75 3.09 3.48 3.88 4.26
2.77 2.87 2.80 2.57 2.60 2.69 2.88 3.11 3.38 3.31 2.85 2.56 2.76 2.80 2.68 2.47 2.77 2.64 2.38 2.29 2.01 1.81 1.63 1.59 1.63 1.69 1.71 1.71 1.67 1.71 1.75 1.82 1.87 2.00 2.17 2.29 2.52 2.94
2.73 2.69 2.65 2.85 2.90 2.74 2.91 3.02 3.25 3.48 3.21 2.76 2.85 2.86 2.75 2.51 2.48 2.41 2.30 2.27 2.06 2.01 1.76 1.64 1.57 1.55 1.56 1.60 1.68 1.74 1.72 1.68 1.64 1.67 1.79 1.92 1.98 2.07
2.76 2.95 2.88 3.05 3.06 3.01 3.20 3.19 3.27 3.51 3.41 3.09 2.95 2.99 2.85 2.70 2.60 2.38 2.05 1.96 1.97 2.14 1.95 1.77 1.65 1.60 1.55 1.51 1.50 1.47 1.46 1.49 1.49 1.45 1.48 1.54 1.64 1.80
2.54 2.81 3.11 3.56 3.41 3.24 3.13 3.05 3.08 3.15 3.36 3.09 2.85 3.05 2.89 2.76 2.72 2.37 2.10 2.04 1.73 1.81 1.86 1.71 1.56 1.43 1.37 1.35 1.33 1.29 1.25 1.26 1.30 1.35 1.40 1.45 1.49 1.54
2.41 2.52 2.70 2.99 3.15 3.29 3.09 2.99 3.06 3.14 3.26 3.16 3.08 3.29 3.34 3.17 2.96 2.57 2.38 2.22 1.96 1.66 1.70 1.60 1.50 1.40 1.33 1.28 1.24 1.23 1.23 1.26 1.32 1.36 1.41 1.50 1.56 1.60
2.49 2.43 2.27 2.41 2.60 2.80 2.67 2.98 3.17 3.10 3.16 3.21 3.31 3.68 3.68 3.46 2.93 2.66 2.56 2.43 2.15 1.79 1.73 1.53 1.44 1.32 1.29 1.32 1.29 1.25 1.22 1.23 1.25 1.27 1.33 1.39 1.46 1.55
2.59 2.54 2.37 2.22 2.20 2.34 2.41 2.63 2.89 2.90 2.98 3.14 3.23 3.41 3.46 3.40 3.16 2.88 2.63 2.47 2.18 1.90 1.91 1.75 1.58 1.49 1.36 1.26 1.38 1.39 1.35 1.32 1.28 1.24 1.22 1.24 1.28 1.32
2.75 2.83 2.39 2.00 2.21 2.17 2.25 2.26 2.19 2.35 2.56 2.77 2.93 2.97 3.29 3.42 3.43 3.00 2.82 2.62 2.27 2.09 2.13 1.95 1.82 1.63 1.42 1.35 1.47 1.36 1.34 1.34 1.29 1.23 1.18 1.13 1.13 1.17
2.41 2.43 2.39 2.22 2.16 2.18 2.15 2.01 1.85 1.85 1.99 2.06 2.16 2.43 2.80 3.29 3.59 3.32 3.19 2.99 2.63 2.30 2.12 1.98 1.85 1.71 1.52 1.44 1.51 1.37 1.29 1.27 1.24 1.18 1.13 1.12 1.10 1.11
2.10 2.10 2.12 1.99 2.06 2.04 1.94 1.88 1.81 1.71 1.73 1.81 1.78 1.91 2.22 2.63 3.14 3.36 3.09 2.75 2.41 2.11 2.03 1.91 1.73 1.81 1.77 1.63 1.55 1.60 1.40 1.30 1.24 1.21 1.19 1.19 1.19 1.23
2.30 2.26 2.21 2.04 2.02 1.91 1.75 1.76 1.63 1.52 1.64 1.63 1.55 1.57 1.68 2.03 2.54 2.71 2.83 2.68 2.37 2.10 1.79 1.82 1.76 1.89 1.92 1.65 1.50 1.50 1.45 1.44 1.38 1.29 1.27 1.29 1.36 1.21
2.37 2.41 2.35 2.25 1.94 1.79 1.65 1.57 1.56 1.70 1.77 1.76 1.71 1.71 1.86 2.05 2.22 2.46 2.70 2.76 2.53 2.15 1.89 1.96 1.86 1.94 1.98 1.76 1.60 1.54 1.45 1.42 1.42 1.41 1.38 1.35 1.35 1.23
2.26 2.38 2.42 2.33 2.05 1.91 1.75 1.62 1.67 1.65 1.65 1.76 1.75 1.71 1.75 1.86 2.05 2.35 2.62 2.69 2.57 2.33 2.24 2.25 2.11 2.03 2.06 1.91 1.70 1.62 1.60 1.52 1.46 1.41 1.38 1.54 1.46 1.40
1.98 2.34 2.46 2.32 2.09 1.83 1.74 1.73 1.65 1.52 1.55 1.59 1.51 1.47 1.54 1.68 1.88 2.17 2.52 2.72 2.65 2.41 2.27 2.21 2.19 2.28 2.31 2.08 1.82 1.69 1.69 1.63 1.49 1.44 1.39 1.37 1.30 1.31
1.71 1.94 2.06 2.03 1.84 1.69 1.61 1.53 1.43 1.44 1.43 1.42 1.43 1.51 1.62 1.67 1.72 1.86 2.24 2.58 2.70 2.47 2.29 2.25 2.26 2.41 2.38 2.22 2.11 1.85 1.67 1.60 1.49 1.44 1.46 1.40 1.36 1.30
1.78 1.78 1.85 1.94 1.92 1.85 1.83 1.75 1.66 1.59 1.50 1.45 1.54 1.59 1.71 1.81 1.86 1.97 2.23 2.45 2.42 2.21 2.15 2.26 2.38 2.47 2.43 2.41 2.27 1.93 1.77 1.65 1.61 1.66 1.69 1.58 1.44 1.39
1.53 1.53 1.73 1.91 2.03 2.04 2.09 2.05 1.96 1.87 1.79 1.79 1.82 1.81 1.80 1.86 1.93 1.98 2.19 2.39 2.39 2.25 2.15 2.12 2.34 2.56 2.55 2.34 2.10 1.94 1.81 1.68 1.66 1.77 1.79 1.72 1.54 1.43
1.33 1.44 1.60 1.74 1.93 2.09 2.15 2.11 2.03 2.05 2.13 2.12 2.08 2.05 2.04 2.06 2.12 2.11 2.13 2.27 2.36 2.30 2.31 2.32 2.39 2.47 2.40 2.03 1.78 1.73 1.81 1.82 1.89 1.89 1.81 1.67 1.51 1.44
1.38 1.56 1.73 1.85 1.98 2.17 2.23 2.20 2.20 2.21 2.25 2.23 2.24 2.23 2.21 2.20 2.21 2.18 2.12 2.10 2.22 2.31 2.34 2.34 2.30 2.21 2.12 2.03 1.95 1.86 1.83 1.90 1.94 1.87 1.82 1.81 1.71 1.69
1.67 1.74 1.82 1.93 2.08 2.23 2.37 2.44 2.46 2.42 2.40 2.36 2.31 2.33 2.37 2.37 2.25 2.18 2.23 2.26 2.22 2.26 2.20 2.02 2.04 2.38 2.50 2.52 2.31 1.95 1.85 1.96 1.99 1.97 1.99 2.11 1.97 1.82
1.72 1.78 1.81 1.85 2.01 2.16 2.25 2.32 2.37 2.34 2.34 2.39 2.34 2.33 2.35 2.37 2.29 2.28 2.36 2.35 2.22 2.12 2.06 2.05 2.24 2.48 2.57 2.54 2.25 2.04 1.98 2.02 2.08 2.11 2.07 2.04 1.93 1.75
1.63 1.62 1.66 1.73 1.85 2.00 2.08 2.17 2.25 2.24 2.20 2.24 2.33 2.35 2.27 2.29 2.27 2.29 2.31 2.37 2.31 2.23 2.27 2.32 2.36 2.41 2.39 2.39 2.35 2.20 2.09 2.14 2.11 1.99 1.82 1.75 1.66 1.56